Location: Bottom School (historical)
(37.9078°N, 89.3593°W)
Time: 23:31:34
(UTC+00:00)

STRAND 1 - Pass Details

Date: 08 April 2023
Orbit: 767 x 779 km, 98.4° (Epoch: 28 May)

Event Time Altitude Azimuth Distance (km) Brightness Sun altitude
Rises 01:08:59 0° 7° (N) 3,244 ? -9.1°
Reaches altitude 10° 01:11:20 10° 3° (N) 2,313 ? -9.6°
Maximum altitude 01:16:17 53° 287° (WNW) 939 ? -10.5°
Drops below altitude 10° 01:21:12 10° 212° (SSW) 2,301 ? -11.4°
Sets 01:23:32 0° 207° (SSW) 3,225 ? -11.8°
